Wind_Speed
43 39 36 36 41 45 46 43 40 39 41 39 40 49 50 49 55 62 70 84 91 94 99 97 81 76 73 68 64 65 70 67 64 59 55 51 49 47
43 41 33 28 27 29 36 41 42 40 41 39 39 48 49 50 48 59 68 81 89 98 94 94 81 79 75 69 69 65 66 71 68 63 59 54 51 50
40 39 36 28 22 20 24 32 38 40 41 40 40 46 47 50 48 56 66 78 87 92 94 90 81 73 78 72 70 66 67 69 73 66 61 58 53 53
37 35 28 25 19 12 14 22 32 37 38 40 39 42 45 50 49 54 63 72 84 90 93 89 90 86 80 73 73 69 59 68 67 69 64 61 58 55
33 28 25 21 16 9 6 12 23 29 33 35 36 38 40 51 53 53 62 68 77 90 97 94 90 89 84 79 73 67 60 64 62 66 71 66 60 57
30 25 20 17 13 8 1 8 14 20 25 30 31 35 38 44 56 51 58 68 74 90 98 96 91 91 87 84 76 70 65 65 61 52 75 70 64 61
28 22 20 16 11 8 5 6 10 15 20 26 29 31 33 40 53 55 52 63 73 89 96 98 94 92 90 86 81 75 58 64 58 49 67 75 68 65
26 22 21 16 13 11 7 7 10 13 20 23 29 32 35 36 47 52 49 56 68 79 91 97 92 91 91 86 80 71 64 58 65 52 62 68 73 64
24 22 20 16 14 12 8 11 11 11 15 17 22 27 34 40 45 47 48 50 58 65 74 91 94 97 88 81 77 68 71 49 64 64 57 57 58 71
23 21 19 16 15 12 9 8 9 13 13 16 20 23 34 40 46 53 59 52 55 64 63 57 70 85 84 77 73 67 72 54 49 49 51 45 47 54
23 21 20 16 15 12 11 9 8 9 11 14 17 25 33 42 47 51 55 54 59 75 76 64 63 62 73 84 72 71 69 49 46 48 49 47 41 40
25 23 21 16 13 13 10 9 9 8 9 17 18 24 32 38 42 52 55 46 53 51 65 76 68 57 63 73 74 77 60 53 55 51 48 45 41 41
25 23 22 19 18 15 14 11 11 13 15 12 18 21 25 32 35 42 39 45 44 53 54 61 59 62 61 58 66 70 68 56 51 49 47 45 45 45
22 21 22 23 21 18 15 12 13 14 14 12 10 14 20 28 26 22 38 45 33 39 57 54 61 63 74 61 65 67 77 70 66 56 48 48 52 50
20 20 22 23 22 19 15 13 15 16 15 13 10 21 16 27 28 29 31 28 36 39 40 47 59 58 73 65 61 62 54 61 65 61 56 54 54 51
23 23 22 22 24 23 19 17 15 16 18 16 16 13 22 24 34 34 30 27 26 26 28 35 44 62 60 69 71 66 58 56 56 54 52 52 53 50
27 26 24 23 22 23 23 19 17 17 19 17 16 20 24 27 24 26 29 31 31 30 29 31 34 41 49 58 58 68 65 56 55 52 51 51 50 50
29 26 23 22 21 22 23 24 22 19 20 22 20 19 20 34 30 33 32 31 32 30 29 30 32 36 39 39 45 49 52 53 53 53 52 51 50 48
28 25 24 22 22 22 22 23 23 22 20 21 21 20 19 18 21 26 28 29 32 30 30 32 34 38 38 39 42 44 45 47 46 46 45 45 46 47
28 27 26 24 24 23 23 22 23 24 23 21 23 24 25 27 27 24 21 22 23 28 30 32 35 37 39 41 43 44 43 41 40 41 41 42 44 46
28 28 28 28 27 27 27 26 25 23 22 21 20 19 20 20 21 25 26 27 28 31 33 37 40 42 43 44 44 43 44 43 43 44 44 44 44 44
29 28 28 28 27 27 27 27 25 25 23 20 19 19 17 17 18 19 21 24 28 31 32 33 34 35 35 37 39 40 40 40 41 43 45 45 45 46
26 28 30 30 29 27 27 26 26 26 24 22 21 19 17 16 15 16 15 17 18 21 25 27 29 31 32 33 34 35 36 38 40 41 43 45 46 47
Wind_Direction
321 315 300 283 269 260 254 248 241 241 237 236 221 218 216 218 219 218 214 211 209 207 212 211 206 207 207 206 209 210 211 212 211 211 212 211 213 214
325 326 320 305 287 264 247 241 235 232 236 230 220 215 215 215 216 216 214 210 209 208 207 213 203 205 208 207 210 210 214 213 214 212 211 212 212 215
326 322 320 318 305 282 246 229 224 223 226 229 218 209 212 213 213 214 212 208 208 209 206 209 211 200 208 210 211 215 217 218 213 211 214 212 212 214
328 326 324 323 315 295 251 227 220 216 216 220 215 206 207 211 208 208 210 207 206 207 205 205 205 207 208 209 213 216 219 217 219 214 215 213 213 214
337 335 335 334 331 328 258 225 215 211 211 214 208 202 202 207 206 207 206 206 205 204 203 204 205 207 208 211 212 217 220 216 224 223 218 215 213 214
346 350 350 345 339 348 184 196 202 204 208 203 196 195 201 205 206 205 203 205 205 203 202 202 204 207 208 211 212 212 219 223 224 217 219 215 211 215
357 357 0 1 4 33 80 161 188 196 193 191 191 192 202 205 203 201 200 203 203 201 200 202 204 207 209 211 214 214 227 215 218 211 217 219 209 214
1 4 10 17 26 43 77 141 166 178 189 193 195 198 201 199 194 197 197 199 200 200 200 200 207 207 210 213 213 216 220 225 226 222 221 218 209 214
5 10 20 26 39 52 98 131 137 151 171 189 191 191 191 189 189 191 191 193 192 191 199 202 204 208 209 211 213 215 218 218 224 213 216 213 220 218
13 20 29 32 45 65 104 110 159 160 169 169 178 188 183 181 186 187 180 186 177 176 179 184 208 212 210 210 212 213 220 209 202 194 195 200 207 213
18 27 36 40 44 66 108 128 152 164 163 175 166 173 177 181 191 191 169 169 173 172 176 179 174 185 210 211 210 211 210 211 202 196 196 201 204 208
20 31 42 51 54 60 75 87 99 122 174 168 168 175 180 188 193 196 168 153 155 173 175 194 194 201 203 204 210 216 214 215 205 200 200 206 211 215
23 32 41 59 64 61 75 78 81 103 116 129 173 180 181 184 194 198 188 167 161 166 184 184 183 205 200 209 208 211 204 208 206 203 211 215 221 224
28 37 40 58 62 63 68 74 85 100 119 152 149 179 177 173 177 181 187 179 164 169 172 175 195 197 197 200 201 207 216 223 223 218 221 225 227 233
38 48 46 53 64 72 77 88 92 101 112 128 153 172 157 167 156 149 176 172 168 171 168 163 181 183 197 205 210 211 209 214 219 223 230 232 234 237
44 52 54 54 59 73 81 92 101 109 116 145 172 174 145 165 163 150 145 157 157 163 171 168 182 197 198 201 212 216 215 215 220 224 227 230 236 239
47 51 55 55 57 61 78 92 104 117 124 133 136 142 153 153 160 162 162 166 164 176 179 183 184 183 194 206 210 214 218 219 222 226 230 233 237 242
48 50 57 63 62 63 67 77 92 111 131 138 139 150 155 161 153 164 163 167 163 170 173 182 188 192 194 196 201 207 212 218 222 226 230 233 237 239
49 52 56 63 69 69 69 71 78 94 116 134 137 143 145 152 157 160 169 173 172 175 179 182 190 193 192 197 204 207 210 215 221 226 231 233 235 235
51 56 60 66 72 76 77 77 78 79 90 111 135 144 151 158 163 171 171 175 181 184 184 188 194 198 198 200 203 205 207 210 213 217 220 223 229 233
56 61 63 67 70 75 77 78 79 80 82 88 102 127 143 151 156 166 167 175 182 187 193 196 198 199 200 203 205 207 211 214 218 221 223 226 228 231
57 62 67 68 71 73 77 78 78 78 83 90 96 103 113 136 152 164 176 185 190 192 194 198 202 204 206 208 212 215 218 220 222 227 230 232 235 236
57 61 65 70 71 73 75 77 80 79 78 81 89 99 108 114 124 135 153 171 181 192 199 203 205 207 210 212 216 220 224 228 230 232 233 236 239 241
Height
5430 5422 5416 5413 5413 5416 5421 5427 5434 5439 5443 5449 5457 5463 5472 5480 5486 5499 5511 5525 5544 5566 5584 5600 5619 5635 5650 5662 5674 5687 5700 5712 5723 5734 5744 5754 5765 5774
5419 5411 5404 5399 5396 5397 5400 5406 5415 5423 5427 5436 5444 5450 5459 5469 5475 5483 5497 5511 5529 5549 5570 5590 5606 5624 5639 5650 5664 5678 5691 5703 5714 5724 5735 5745 5756 5765
5409 5401 5395 5389 5386 5385 5386 5390 5398 5407 5414 5421 5431 5439 5447 5457 5466 5472 5482 5498 5516 5533 5556 5576 5595 5611 5628 5641 5655 5668 5681 5692 5704 5715 5726 5736 5746 5756
5402 5394 5387 5382 5378 5377 5378 5381 5386 5393 5402 5409 5419 5428 5436 5445 5456 5464 5472 5487 5505 5522 5544 5564 5584 5601 5617 5632 5646 5658 5670 5682 5694 5705 5716 5727 5736 5746
5396 5389 5383 5378 5375 5373 5373 5375 5379 5385 5393 5400 5410 5419 5427 5436 5446 5456 5466 5478 5494 5511 5532 5553 5572 5590 5607 5622 5637 5651 5663 5674 5685 5695 5705 5716 5727 5737
5393 5387 5381 5377 5373 5371 5370 5373 5376 5382 5388 5394 5403 5411 5420 5428 5438 5449 5459 5471 5484 5501 5523 5544 5563 5580 5597 5612 5627 5641 5654 5663 5674 5674 5689 5704 5716 5728
5392 5386 5381 5376 5372 5370 5370 5372 5375 5379 5385 5391 5399 5406 5414 5420 5429 5442 5453 5464 5476 5494 5515 5536 5554 5572 5588 5602 5617 5632 5641 5653 5663 5667 5678 5693 5706 5717
5393 5387 5381 5377 5373 5371 5371 5372 5375 5379 5383 5389 5395 5402 5409 5416 5424 5436 5448 5458 5473 5488 5508 5529 5546 5562 5577 5594 5609 5625 5637 5644 5655 5662 5673 5685 5696 5708
5395 5389 5383 5379 5376 5374 5373 5375 5378 5381 5384 5388 5393 5398 5405 5412 5421 5432 5444 5456 5468 5486 5505 5521 5538 5552 5571 5587 5603 5617 5631 5637 5647 5654 5666 5677 5686 5696
5398 5392 5387 5382 5379 5377 5377 5378 5380 5383 5385 5388 5392 5396 5403 5410 5418 5429 5442 5453 5464 5482 5504 5523 5535 5549 5566 5580 5596 5610 5621 5628 5637 5645 5658 5669 5678 5687
5401 5395 5391 5386 5383 5382 5381 5381 5382 5384 5385 5388 5391 5395 5401 5409 5416 5426 5438 5451 5464 5480 5497 5514 5529 5544 5557 5572 5586 5599 5612 5621 5632 5641 5651 5662 5670 5678
5404 5398 5395 5391 5388 5385 5384 5383 5384 5384 5386 5389 5392 5396 5403 5410 5416 5424 5437 5451 5465 5480 5496 5509 5520 5534 5548 5563 5578 5591 5603 5612 5626 5635 5644 5654 5663 5671
5408 5403 5400 5396 5393 5390 5389 5387 5386 5387 5388 5391 5394 5399 5404 5412 5418 5427 5439 5449 5460 5474 5486 5503 5519 5531 5543 5559 5571 5582 5595 5606 5619 5629 5637 5646 5656 5664
5413 5408 5404 5401 5398 5396 5394 5393 5392 5392 5393 5396 5399 5404 5408 5415 5422 5431 5445 5454 5460 5470 5485 5500 5511 5524 5538 5551 5562 5576 5589 5600 5612 5622 5630 5640 5649 5657
5418 5413 5409 5406 5404 5402 5401 5399 5399 5398 5399 5401 5405 5411 5415 5420 5427 5436 5447 5456 5464 5474 5486 5494 5507 5520 5535 5547 5558 5571 5582 5596 5606 5615 5623 5631 5639 5645
5423 5418 5415 5412 5410 5408 5407 5406 5406 5406 5408 5409 5411 5416 5421 5426 5433 5440 5450 5458 5467 5478 5486 5494 5505 5518 5530 5544 5556 5567 5578 5589 5597 5607 5614 5622 5630 5635
5428 5424 5421 5419 5417 5415 5414 5413 5413 5414 5415 5417 5420 5424 5429 5434 5439 5447 5454 5463 5472 5483 5492 5502 5511 5520 5532 5542 5551 5561 5571 5580 5590 5598 5605 5612 5619 5625
5435 5432 5429 5426 5424 5422 5420 5420 5420 5421 5423 5425 5428 5430 5436 5443 5449 5455 5462 5469 5477 5485 5492 5501 5511 5521 5530 5537 5547 5557 5566 5575 5583 5590 5596 5602 5609 5614
5443 5440 5437 5434 5432 5430 5428 5427 5427 5427 5429 5432 5435 5440 5442 5444 5450 5459 5466 5473 5480 5486 5494 5502 5511 5520 5527 5535 5545 5553 5561 5568 5575 5581 5587 5592 5598 5603
5451 5447 5444 5441 5439 5437 5436 5435 5434 5434 5435 5437 5440 5444 5449 5454 5458 5460 5465 5471 5477 5485 5492 5501 5510 5517 5524 5532 5540 5547 5554 5560 5566 5572 5577 5582 5587 5591
5460 5455 5452 5449 5447 5445 5444 5442 5441 5441 5442 5444 5445 5448 5452 5457 5462 5467 5473 5479 5484 5490 5496 5503 5510 5517 5523 5529 5536 5541 5547 5552 5557 5563 5567 5572 5576 5581
5468 5464 5461 5458 5456 5454 5452 5451 5450 5449 5450 5451 5453 5455 5457 5461 5465 5470 5475 5480 5486 5492 5497 5502 5508 5514 5519 5524 5529 5535 5539 5544 5548 5552 5557 5561 5565 5568
5476 5473 5469 5466 5464 5462 5461 5459 5459 5458 5458 5458 5459 5461 5463 5465 5468 5472 5475 5480 5484 5489 5494 5499 5504 5509 5514 5518 5523 5528 5531 5535 5539 5543 5547 5550 5553 5556